Station BZBM3 - 8447930 - Woods Hole, MA Image indicating link to RSS feed of recent meteorological observations for station BZBM3


Conditions at BZBM3 as of
(10:30 pm EDT on 04/14/2024)
0230 GMT on 04/15/2024:
     

Click on the graph icon in the table below to see a time series plot of the last five days of that observation.

5-day plot - Atmospheric Pressure Atmospheric Pressure (PRES):29.75 in
5-day plot - Air Temperature Air Temperature (ATMP): 49.6 °F
5-day plot - Water Temperature Water Temperature (WTMP): 46.2 °F
NOS Water Level Observation Network Water Level
Previous observations
TIME
(EDT)
5-day plot - Wind Direction
WDIR
 
5-day plot - Wind Speed
WSPD
kts
5-day plot - Wind Gust
GST
kts
5-day plot - Wave Height
WVHT
ft
5-day plot - Dominant Wave Period
DPD
sec
5-day plot - Average Wave Period
APD
sec
5-day plot - Mean Wave Direction
MWD
 
5-day plot - Atmospheric Pressure
PRES
in
5-day plot - Pressure Tendency
PTDY
in
5-day plot - Air Temperature
ATMP
°F
5-day plot - Water Temperature
WTMP
°F
5-day plot - Dew Point
DEWP
°F
5-day plot - Salinity
SAL
psu
5-day plot - Visibility
VIS
nmi
5-day plot - Tide (above MLLW)
TIDE
ft
2024-04-14 10:24 pm-------29.75- 49.5 46.2----
2024-04-14 10:18 pm-------29.75- 49.8 46.2----
2024-04-14 10:12 pm-------29.75- 49.6 46.2----
2024-04-14 10:06 pm-------29.75- 49.6 46.2----
2024-04-14 10:00 pm-------29.75-0.07 49.6 46.2----
2024-04-14 09:54 pm-------29.75- 50.0 46.4----
2024-04-14 09:48 pm-------29.75- 50.4 46.4----
2024-04-14 09:42 pm-------29.74- 50.7 46.2----
2024-04-14 09:36 pm-------29.73- 51.1 46.4----
2024-04-14 09:30 pm-------29.73- 50.9 46.2----
2024-04-14 09:24 pm-------29.73- 50.7 46.4----
2024-04-14 09:18 pm-------29.73- 50.9 46.4----
2024-04-14 09:12 pm-------29.73- 50.9 46.4----
2024-04-14 09:06 pm-------29.72- 51.1 46.4----
2024-04-14 09:00 pm-------29.73-0.06 51.3 46.6----
2024-04-14 08:54 pm-------29.74- 50.4 46.4----
2024-04-14 08:48 pm-------29.74-- 46.2----
2024-04-14 08:42 pm-------29.75-- 46.2----
2024-04-14 08:36 pm-------29.75-- 46.4----
2024-04-14 08:30 pm-------29.75- 49.3 46.4----
2024-04-14 08:24 pm-------29.75- 49.6 46.4----
2024-04-14 08:18 pm--------- 49.3 46.4----
2024-04-14 08:12 pm--------- 49.3 46.8----
2024-04-14 08:06 pm--------- 48.2 46.4----
2024-04-14 08:00 pm-------29.75-0.05 47.8 46.2----
2024-04-14 07:54 pm-------29.75- 47.5 46.2----
2024-04-14 07:48 pm-------29.75- 47.3 46.4----
2024-04-14 07:42 pm-------29.75- 47.3 46.4----
2024-04-14 07:36 pm-------29.76- 47.1 46.4----
2024-04-14 07:30 pm-------29.77- 47.3 46.4----
2024-04-14 07:24 pm-------29.78- 47.5 46.4----
2024-04-14 07:00 pm-------29.82+0.02- 46.4----
2024-04-14 06:54 pm-------29.82-- 46.4----
2024-04-14 06:48 pm-------29.83- 48.6 46.4----
2024-04-14 06:42 pm-------29.83- 48.7 46.4----
2024-04-14 06:36 pm-------29.83- 48.2 46.4----
2024-04-14 06:30 pm-------29.81- 47.8 46.6----
2024-04-14 06:24 pm-------29.78- 47.5 46.4----
2024-04-14 06:18 pm-------29.78- 47.5 46.6----
2024-04-14 06:12 pm-------29.78- 47.7 46.6----
2024-04-14 06:06 pm-------29.78- 47.8 46.6----
2024-04-14 06:00 pm-------29.79-0.02 47.8 46.4----
2024-04-14 05:54 pm-------29.78- 47.7 46.6----
2024-04-14 05:48 pm-------29.79-- 46.6----
2024-04-14 05:42 pm-------29.79-- 46.6----
2024-04-14 05:36 pm-------29.79-- 46.6----
2024-04-14 05:30 pm-------29.80-- 46.6----
2024-04-14 05:24 pm-------29.80-- 46.6----
2024-04-14 05:18 pm-------29.79- 47.5 46.6----
2024-04-14 05:12 pm-------29.79- 47.5 46.6----
2024-04-14 05:06 pm-------29.80- 47.7 46.4----
2024-04-14 05:00 pm-------29.80-0.06 47.8 46.4----
2024-04-14 04:54 pm-------29.80- 48.2 46.4----
2024-04-14 04:48 pm-------29.80- 48.7 46.4----
2024-04-14 04:42 pm-------29.80- 48.9 46.4----
2024-04-14 04:36 pm-------29.80- 49.1 46.4----
2024-04-14 04:30 pm-------29.80- 49.1 46.4----
2024-04-14 04:24 pm-------29.80- 49.1 46.4----
2024-04-14 04:18 pm-------29.79- 49.5 46.4----
2024-04-14 04:12 pm-------29.79- 48.9 46.4----
2024-04-14 04:06 pm-------29.79- 49.1 46.4----
2024-04-14 04:00 pm-------29.80-0.08 48.9 46.4----
2024-04-14 03:54 pm-------29.80- 48.7 46.4----
2024-04-14 03:48 pm-------29.80- 48.7 46.4----
2024-04-14 03:42 pm-------29.80- 48.4 46.4----
2024-04-14 03:36 pm-------29.80- 47.8 46.4----
2024-04-14 03:30 pm-------29.80- 47.5 46.4----
2024-04-14 03:24 pm-------29.80- 47.1 46.4----
2024-04-14 03:18 pm-------29.81- 47.3 46.4----
2024-04-14 03:12 pm-------29.80- 47.5 46.4----
2024-04-14 03:06 pm-------29.81- 49.3 46.4----
2024-04-14 03:00 pm-------29.81-0.07------
2024-04-14 02:54 pm-------29.82-------
2024-04-14 02:48 pm-------29.82- 50.5 46.4----
2024-04-14 02:42 pm-------29.83- 50.2 46.4----
2024-04-14 02:36 pm-------29.84- 49.8 46.6----
2024-04-14 02:30 pm-------29.84- 49.8 46.6----
2024-04-14 02:24 pm-------29.85- 49.1 46.6----
2024-04-14 02:18 pm-------29.85- 51.3 46.6----
2024-04-14 02:12 pm-------29.86- 51.1 46.4----
2024-04-14 02:06 pm-------29.86- 50.5 46.4----
2024-04-14 02:00 pm-------29.86-0.02 50.4 46.4----
2024-04-14 01:54 pm-------29.87- 51.6 46.4----
2024-04-14 01:48 pm-------29.87- 52.3 46.4----
2024-04-14 01:42 pm-------29.86- 52.7 46.4----
2024-04-14 01:36 pm-------29.87- 52.2 46.4----
2024-04-14 01:30 pm-------29.87- 52.0 46.4----
2024-04-14 01:24 pm-------29.88- 51.6 46.4----
2024-04-14 01:18 pm-------29.88- 51.1 46.4----
2024-04-14 01:12 pm-------29.88- 50.9 46.4----
2024-04-14 01:06 pm-------29.88- 50.9 46.4----
2024-04-14 01:00 pm-------29.88-0.03 50.5 46.4----
2024-04-14 12:54 pm-------29.88- 50.2 46.4----
2024-04-14 12:48 pm-------29.88-- 46.4----
2024-04-14 12:42 pm-------29.88-- 46.4----
2024-04-14 12:36 pm-------29.88-- 46.4----
2024-04-14 12:30 pm-------29.88-- 46.4----
2024-04-14 12:24 pm-------29.88-- 46.4----
2024-04-14 12:18 pm-------29.88- 50.0 46.4----
2024-04-14 12:12 pm-------29.88- 50.2 46.2----
2024-04-14 12:06 pm-------29.88- 50.4 46.2----
2024-04-14 12:00 pm-------29.88-0.01 49.8 46.2----
2024-04-14 11:54 am-------29.88- 49.8 46.2----
2024-04-14 11:48 am-------29.88- 49.8 46.2----
2024-04-14 11:42 am-------29.88- 49.1 46.2----
2024-04-14 11:36 am-------29.88- 49.3 46.0----
2024-04-14 11:30 am-------29.89-- 46.0----
2024-04-14 11:24 am-------29.88-- 46.2----
2024-04-14 11:18 am-------29.89-- 46.2----
2024-04-14 11:12 am-------29.89-- 46.0----
2024-04-14 11:06 am-------29.88-- 46.2----
2024-04-14 11:00 am-------29.88+0.00 48.9 46.2----
2024-04-14 10:54 am-------29.88- 49.1 46.0----
2024-04-14 10:48 am-------29.88- 49.1 46.0----
2024-04-14 10:42 am-------29.88- 48.7 46.2----
2024-04-14 10:36 am-------29.89- 48.2 46.2----
2024-04-14 10:30 am-------29.89- 47.8 46.2----
2024-04-14 10:24 am-------29.89- 48.0 46.2----
2024-04-14 10:18 am-------29.90- 48.4 46.2----
2024-04-14 10:12 am-------29.90- 48.0 46.2----
2024-04-14 10:06 am-------29.90- 47.8 46.2----
2024-04-14 10:00 am-------29.90+0.04- 46.0----
2024-04-14 09:54 am-------29.90-- 46.0----
2024-04-14 09:48 am-------29.90- 48.0 46.0----
2024-04-14 09:42 am-------29.90- 48.0 46.0----
2024-04-14 09:36 am-------29.89- 48.0 46.0----
2024-04-14 09:30 am-------29.89-- 46.2----
2024-04-14 09:24 am-------29.89-- 46.2----
2024-04-14 09:18 am-------29.89- 47.5 46.2----
2024-04-14 09:12 am-------29.90- 47.1 46.2----
2024-04-14 09:06 am-------29.90- 47.1 46.2----
2024-04-14 09:00 am-------29.90- 46.9 46.2----
2024-04-14 08:54 am-------29.89- 46.9 46.2----
2024-04-14 08:48 am-------29.89- 47.1 46.2----
2024-04-14 08:42 am-------29.89- 46.9 46.2----
2024-04-14 08:36 am-------29.89- 46.9 46.2----
2024-04-14 08:30 am-------29.88-- 46.2----
2024-04-14 08:24 am-------29.89-- 46.2----
2024-04-14 08:18 am-------29.89- 46.9 46.0----
2024-04-14 08:12 am-------29.89- 46.8 46.0----
2024-04-14 08:06 am-------29.88- 46.8 46.0----
2024-04-14 08:00 am-------29.88+0.07- 46.0----
2024-04-14 07:54 am-------29.88-- 46.0----
2024-04-14 07:48 am-------29.87-- 46.0----
2024-04-14 07:42 am-------29.88-- 46.0----
2024-04-14 07:36 am-------29.87-- 46.0----
2024-04-14 07:30 am-------29.86- 46.8 46.0----
2024-04-14 07:24 am-------29.86- 46.9 46.0----
2024-04-14 07:18 am-------29.86-------
2024-04-14 07:12 am-------29.86-------
2024-04-14 07:06 am-------29.86-------
2024-04-14 07:00 am-------29.86+0.07 46.8 46.0----
2024-04-14 06:54 am-------29.86- 46.6 46.2----
2024-04-14 06:48 am-------29.85-- 46.2----
2024-04-14 06:42 am-------29.85-- 46.0----
2024-04-14 06:36 am-------29.85-- 46.0----
2024-04-14 06:30 am-------29.85- 46.8 45.9----
2024-04-14 06:24 am-------29.85- 46.8 45.9----
2024-04-14 06:18 am-------29.85- 46.8 45.9----
2024-04-14 06:12 am-------29.85- 46.6 46.0----
2024-04-14 06:06 am-------29.84- 46.6 46.0----
2024-04-14 06:00 am--------- 46.8-----
2024-04-14 05:54 am--------- 46.6-----
2024-04-14 05:48 am--------- 46.6 46.0----
2024-04-14 05:42 am--------- 46.6 46.0----
2024-04-14 05:36 am--------- 46.6 46.0----
2024-04-14 05:30 am-------29.83-- 46.0----
2024-04-14 05:24 am-------29.83-- 46.0----
2024-04-14 05:18 am-------29.82- 46.6 46.0----
2024-04-14 05:12 am-------29.81- 46.8 46.0----
2024-04-14 05:06 am-------29.81- 46.8 46.0----
2024-04-14 05:00 am-------29.81+0.06 46.8 46.0----
2024-04-14 04:54 am-------29.81- 46.9 46.0----
2024-04-14 04:48 am-------29.81- 46.9 46.0----
2024-04-14 04:42 am-------29.80- 46.6 46.0----
2024-04-14 04:36 am-------29.80- 46.4 46.0----
2024-04-14 04:30 am-------29.80- 46.4 46.2----
2024-04-14 04:24 am-------29.80- 46.4 46.0----
2024-04-14 04:18 am-------29.80- 46.6 46.0----
2024-04-14 04:12 am-------29.79- 46.6 46.0----
2024-04-14 04:06 am-------29.79- 46.6 46.0----
2024-04-14 04:00 am-------29.79+0.04 46.6 46.0----
2024-04-14 03:54 am-------29.78- 46.8 46.0----
2024-04-14 03:48 am-------29.78- 46.8 46.0----
2024-04-14 03:42 am-------29.78- 46.6 46.0----
2024-04-14 03:36 am-------29.78- 46.6 46.0----
2024-04-14 03:30 am-------29.78- 46.8 46.0----
2024-04-14 03:24 am-------29.78- 46.8 46.0----
2024-04-14 03:18 am-------29.77- 46.8 46.0----
2024-04-14 03:12 am-------29.77- 46.9 46.0----
2024-04-14 03:06 am-------29.77- 46.9 46.2----
2024-04-14 03:00 am-------29.76+0.03 46.9 46.2----
2024-04-14 02:54 am-------29.76- 46.9 46.2----
2024-04-14 02:48 am-------29.76- 46.9 46.0----
2024-04-14 02:42 am-------29.76- 46.8 46.0----
2024-04-14 02:36 am-------29.76- 46.8 46.0----
2024-04-14 02:30 am-------29.75- 46.8 46.0----
2024-04-14 02:24 am-------29.75- 46.9 46.2----
2024-04-14 02:18 am-------29.75- 46.9 46.2----
2024-04-14 02:12 am-------29.75- 47.1 46.0----
2024-04-14 02:06 am-------29.75- 46.9 46.0----
2024-04-14 02:00 am-------29.75+0.03 46.9 46.0----
2024-04-14 01:54 am-------29.75- 46.9 46.0----
2024-04-14 01:48 am-------29.75- 46.9 46.0----
2024-04-14 01:42 am-------29.75- 46.9 46.0----
2024-04-14 01:36 am-------29.75- 47.1 46.0----
2024-04-14 01:30 am-------29.75- 46.9 46.0----
2024-04-14 01:24 am-------29.74- 46.9 46.0----
2024-04-14 01:18 am-------29.75- 46.8 46.2----
2024-04-14 01:12 am-------29.75- 46.8 46.2----
2024-04-14 01:06 am-------29.74- 46.8 46.2----
2024-04-14 01:00 am-------29.74+0.04 46.8 46.2----
2024-04-14 12:54 am-------29.74- 46.8 46.2----
2024-04-14 12:48 am-------29.74- 46.9 46.2----
2024-04-14 12:42 am-------29.74- 47.1 46.2----
2024-04-14 12:36 am-------29.74- 47.1 46.2----
2024-04-14 12:30 am-------29.74- 47.1 46.2----
2024-04-14 12:24 am-------29.74- 47.1 46.2----
2024-04-14 12:18 am-------29.74- 47.1 46.2----
2024-04-14 12:12 am-------29.74- 47.1 46.2----
2024-04-14 12:06 am-------29.73- 47.1 46.2----
2024-04-14 12:00 am-------29.73+0.06 47.1 46.2----
2024-04-13 11:54 pm-------29.73- 46.9 46.2----
2024-04-13 11:48 pm-------29.73- 46.9 46.2----
2024-04-13 11:42 pm-------29.73- 47.1 46.2----
2024-04-13 11:36 pm-------29.72- 47.3 46.2----
2024-04-13 11:30 pm-------29.72- 47.5 46.4----
2024-04-13 11:24 pm-------29.72- 47.5 46.4----
2024-04-13 11:18 pm-------29.72- 47.3 46.4----
2024-04-13 11:12 pm-------29.72- 47.5 46.4----
2024-04-13 11:06 pm-------29.72- 47.3 46.4----
2024-04-13 11:00 pm-------29.72+0.08 47.3 46.4----
2024-04-13 10:54 pm-------29.72- 47.3 46.4----